VK4TDI Weather Reports


Display with metric or nautical units.
time (UTC)temp
F
wind
direction
speed
MPH
gust
MPH
rain 1hr
in
rain 24hr
in
rain mn
in
humidity
%
barometer
mb
20260509012623 72 200 0.0 5.0 0.00 0.00 0.00 47 1024.0
20260509011539 70 0.0 0.0 0.00 0.00 0.00 49 1024.1
20260509010636 69 0.0 0.0 0.00 0.00 0.00 50 1024.1
20260509005643 69 0.0 0.0 0.00 0.00 0.00 50 1024.2
20260509004635 68 0.0 0.0 0.00 0.00 0.00 51 1024.2
20260509003645 69 0.0 0.0 0.00 0.00 0.00 50 1024.3
20260509002717 68 0.0 0.0 0.00 0.00 0.00 50 1024.4
20260509001643 67 0.0 0.0 0.00 0.00 0.00 51 1024.5
20260509000635 67 220 0.0 3.0 0.00 0.00 0.00 50 1024.4
20260508235642 69 0.0 0.0 0.00 0.00 0.00 49 1024.4
20260508234756 68 210 0.0 3.0 0.00 0.00 0.00 50 1024.5
20260508233726 66 184 0.0 3.0 0.00 0.00 0.00 51 1024.4
20260508232635 66 0.0 0.0 0.00 0.00 0.00 53 1024.3
20260508231644 63 199 0.0 5.0 0.00 0.00 0.00 56 1024.2
20260508230622 62 0.0 0.0 0.00 0.00 0.00 58 1024.1
20260508225619 62 192 0.0 3.0 0.00 0.00 0.00 58 1024.2
20260508224541 60 0.0 0.0 0.00 0.00 0.00 60 1024.1
20260508223540 60 0.0 0.0 0.00 0.00 0.00 61 1023.8
20260508222542 59 0.0 0.0 0.00 0.00 0.00 63 1023.8
20260508221539 57 181 0.0 3.0 0.00 0.00 0.00 65 1023.7
20260508220543 56 162 0.0 8.0 0.00 0.00 0.00 65 1023.7
20260508215539 56 0.0 3.0 0.00 0.00 0.00 66 1023.4
20260508214544 56 0.0 0.0 0.00 0.00 0.00 67 1023.3
20260508213619 55 0.0 0.0 0.00 0.00 0.00 69 1023.1
20260508212542 53 0.0 0.0 0.00 0.00 0.00 70 1022.9
20260508211539 52 0.0 0.0 0.00 0.00 0.00 72 1023.0
20260508210541 52 0.0 0.0 0.00 0.00 0.00 72 1022.9
20260508205539 51 230 0.0 3.0 0.00 0.00 0.00 73 1022.8
20260508204541 51 0.0 0.0 0.00 0.00 0.00 73 1022.6
20260508203540 51 0.0 0.0 0.00 0.00 0.00 73 1022.5
20260508202543 51 0.0 3.0 0.00 0.00 0.00 73 1022.4
20260508201539 51 0.0 0.0 0.00 0.00 0.00 72 1022.5
20260508200702 51 0.0 0.0 0.00 0.00 0.00 73 1022.3
20260508195540 51 0.0 0.0 0.00 0.00 0.00 73 1022.1
20260508194542 51 0.0 0.0 0.00 0.00 0.00 74 1022.0
20260508193540 51 0.0 0.0 0.00 0.00 0.00 74 1021.9
20260508192542 51 0.0 0.0 0.00 0.00 0.00 74 1021.8
20260508191539 51 0.0 0.0 0.00 0.00 0.00 74 1021.6
20260508190541 51 0.0 0.0 0.00 0.00 0.00 74 1021.6
20260508185725 51 0.0 0.0 0.00 0.00 0.00 73 1021.5
20260508183643 51 0.0 0.0 0.00 0.00 0.00 72 1021.5
20260508182634 51 0.0 0.0 0.00 0.00 0.00 73 1021.4
20260508181723 51 0.0 0.0 0.00 0.00 0.00 72 1021.3
20260508180542 51 220 0.0 3.0 0.00 0.00 0.00 72 1021.4
20260508175539 51 0.0 0.0 0.00 0.00 0.00 74 1021.2
20260508174542 51 0.0 0.0 0.00 0.00 0.00 76 1021.4
20260508173538 50 0.0 0.0 0.00 0.00 0.00 76 1021.4
20260508172542 51 0.0 0.0 0.00 0.00 0.00 76 1021.4
20260508171619 50 0.0 0.0 0.00 0.00 0.00 74 1021.3
20260508170542 50 0.0 0.0 0.00 0.00 0.00 73 1021.3
20260508165539 50 0.0 0.0 0.00 0.00 0.00 72 1021.2
20260508164542 51 0.0 0.0 0.00 0.00 0.00 71 1021.2
20260508163539 52 0.0 0.0 0.00 0.00 0.00 69 1021.1
20260508162543 52 0.0 0.0 0.00 0.00 0.00 68 1021.1
20260508161539 52 0.0 0.0 0.00 0.00 0.00 68 1021.1
20260508160542 51 0.0 0.0 0.00 0.00 0.00 69 1021.1
20260508155643 51 0.0 0.0 0.00 0.00 0.00 69 1021.0
20260508154635 51 0.0 0.0 0.00 0.00 0.00 68 1021.1
20260508153539 51 0.0 0.0 0.00 0.00 0.00 68 1021.1
20260508152542 52 0.0 0.0 0.00 0.00 0.00 69 1021.0
20260508151541 52 0.0 0.0 0.00 0.00 0.00 68 1020.9
20260508150542 53 0.0 0.0 0.00 0.00 0.00 66 1020.9
20260508145723 52 0.0 0.0 0.00 0.00 0.00 68 1020.8
20260508144635 52 0.0 0.0 0.00 0.00 0.00 70 1021.0
20260508143643 52 0.0 0.0 0.00 0.00 0.00 69 1020.9
20260508142635 53 0.0 0.0 0.00 0.00 0.00 68 1020.8
20260508141644 53 0.0 0.0 0.00 0.00 0.00 70 1020.9
20260508135538 53 0.0 0.0 0.00 0.00 0.00 71 1020.8
20260508134541 53 0.0 0.0 0.00 0.00 0.00 70 1020.7
20260508133620 54 0.0 0.0 0.00 0.00 0.00 71 1020.7
20260508132542 55 0.0 0.0 0.00 0.00 0.00 72 1020.7
20260508131642 53 0.0 0.0 0.00 0.00 0.00 67 1020.6
20260508130635 53 0.0 0.0 0.00 0.00 0.00 66 1020.4
20260508125644 53 0.0 0.0 0.00 0.00 0.00 64 1020.3
20260508124634 53 0.0 0.0 0.00 0.00 0.00 63 1020.3
20260508123645 53 0.0 0.0 0.00 0.00 0.00 62 1020.4
20260508122636 54 0.0 0.0 0.00 0.00 0.00 63 1020.5
20260508120622 55 0.0 0.0 0.00 0.00 0.00 59 1020.5
20260508115539 55 0.0 0.0 0.00 0.00 0.00 60 1020.5
20260508114541 56 0.0 0.0 0.00 0.00 0.00 61 1020.7
20260508113538 58 0.0 0.0 0.00 0.00 0.00 60 1020.5
20260508112622 57 0.0 0.0 0.00 0.00 0.00 60 1020.5
20260508111539 57 0.0 0.0 0.00 0.00 0.00 60 1020.4
20260508110541 58 0.0 0.0 0.00 0.00 0.00 61 1020.4
20260508105539 58 0.0 0.0 0.00 0.00 0.00 60 1020.4
20260508104542 59 0.0 0.0 0.00 0.00 0.00 59 1020.4
20260508103538 59 0.0 0.0 0.00 0.00 0.00 59 1020.3
20260508102542 60 0.0 0.0 0.00 0.00 0.00 59 1020.3
20260508101642 60 0.0 0.0 0.00 0.00 0.00 58 1020.3
20260508100635 60 0.0 3.0 0.00 0.00 0.00 58 1020.3
20260508095643 60 0.0 0.0 0.00 0.00 0.00 58 1020.1
20260508094634 60 0.0 0.0 0.00 0.00 0.00 57 1020.0
20260508093643 60 0.0 0.0 0.00 0.00 0.00 55 1020.1
20260508092636 60 0.0 0.0 0.00 0.00 0.00 54 1020.1
20260508091538 61 0.0 0.0 0.00 0.00 0.00 54 1019.9
20260508090542 61 0.0 0.0 0.00 0.00 0.00 52 1019.9
20260508085541 62 0.0 0.0 0.00 0.00 0.00 50 1019.6
20260508084541 62 0.0 0.0 0.00 0.00 0.00 49 1019.6
20260508083539 62 0.0 0.0 0.00 0.00 0.00 50 1019.5
20260508082542 62 0.0 0.0 0.00 0.00 0.00 48 1019.3
20260508081620 62 0.0 0.0 0.00 0.00 0.00 48 1019.1
20260508080634 63 0.0 0.0 0.00 0.00 0.00 46 1018.7
20260508075643 63 0.0 0.0 0.00 0.00 0.00 44 1018.7
20260508074634 63 0.0 0.0 0.00 0.00 0.00 45 1018.4
20260508073723 64 0.0 0.0 0.00 0.00 0.00 42 1018.4
20260508072635 64 0.0 0.0 0.00 0.00 0.00 40 1018.4
20260508071644 66 0.0 0.0 0.00 0.00 0.00 38 1018.3
20260508070635 68 0.0 0.0 0.00 0.00 0.00 35 1018.1
20260508065643 69 0.0 0.0 0.00 0.00 0.00 31 1018.2
20260508064636 70 0.0 0.0 0.00 0.00 0.00 29 1018.1
20260508063643 71 0.0 0.0 0.00 0.00 0.00 28 1018.0
20260508062634 72 0.0 0.0 0.00 0.00 0.00 26 1017.9
20260508061538 73 305 1.0 5.0 0.00 0.00 0.00 24 1017.9
20260508060634 75 0.0 0.0 0.00 0.00 0.00 24 1017.9
20260508055643 73 0.0 3.0 0.00 0.00 0.00 25 1017.9
20260508054634 72 259 0.0 3.0 0.00 0.00 0.00 24 1018.0
20260508053642 73 307 1.0 8.0 0.00 0.00 0.00 23 1018.1
20260508052635 74 0.0 0.0 0.00 0.00 0.00 23 1018.2
20260508051539 74 244 0.0 3.0 0.00 0.00 0.00 22 1018.2
20260508050636 73 231 1.0 8.0 0.00 0.00 0.00 22 1018.2
20260508045643 73 289 1.0 8.0 0.00 0.00 0.00 22 1018.3
20260508044636 73 230 1.0 8.0 0.00 0.00 0.00 23 1018.4
20260508043643 72 246 1.0 8.0 0.00 0.00 0.00 23 1018.4
20260508042541 73 224 2.0 8.0 0.00 0.00 0.00 24 1018.4
20260508041539 73 278 1.0 5.0 0.00 0.00 0.00 25 1018.5
20260508040635 74 220 0.0 5.0 0.00 0.00 0.00 24 1018.6
20260508035723 75 234 1.0 8.0 0.00 0.00 0.00 24 1018.7
20260508034635 74 225 1.0 5.0 0.00 0.00 0.00 24 1018.7
20260508033644 75 168 0.0 3.0 0.00 0.00 0.00 24 1018.9
20260508032635 75 0.0 0.0 0.00 0.00 0.00 26 1018.9
20260508031643 74 186 1.0 5.0 0.00 0.00 0.00 26 1019.1
20260508030543 73 179 0.0 3.0 0.00 0.00 0.00 26 1019.1
20260508025538 72 279 1.0 5.0 0.00 0.00 0.00 25 1019.3
20260508024542 72 306 2.0 10.0 0.00 0.00 0.00 22 1019.5
20260508023539 72 292 0.0 5.0 0.00 0.00 0.00 25 1019.6
20260508022542 70 298 2.0 8.0 0.00 0.00 0.00 26 1019.7
20260508021538 71 223 1.0 5.0 0.00 0.00 0.00 27 1019.8
20260508020542 71 211 0.0 3.0 0.00 0.00 0.00 27 1020.2
20260508015700 71 0.0 0.0 0.00 0.00 0.00 26 1020.3
20260508014542 70 163 0.0 5.0 0.00 0.00 0.00 25 1020.7
20260508013538 69 230 0.0 5.0 0.00 0.00 0.00 23 1020.9